Detroit, MI

1:37 PM EST on February 13, 2016 (GMT -0500)
Detroit Metro Wayne County

Weather History for KDTW - December, 2012

Change the Weather History Date:

Sunday, December 16, 2012

  Actual Average Record
Temperature  
Mean Temperature 49 °F 30 °F  
Max Temperature 53 °F 36 °F 65 °F (1984)
Min Temperature 45 °F 24 °F -3 °F (1951)
Degree Days  
Heating Degree Days 16 35  
Month to date heating degree days 381 524  
Since 1 July heating degree days 1607 1739  
Cooling Degree Days 0 0  
Month to date cooling degree days 0 0  
Year to date cooling degree days 1156 803  
Moisture  
Dew Point 45 °F    
Average Humidity 86    
Maximum Humidity 100    
Minimum Humidity 71    
Precipitation  
Precipitation 0.38 in 0.07 in 0.85 in (1940)
Month to date precipitation 1.10 1.30  
Year to date precipitation 25.57 32.31  
Snow  
Snow 0.00 in 0.30 in 7.40 in (2007)
Month to date snowfall 0.0 4.2  
Since 1 July snowfall 0.4 5.8  
Snow Depth 0.00 in    
Sea Level Pressure  
Sea Level Pressure 29.65 in    
Wind  
Wind Speed 10 mph (SSW)    
Max Wind Speed 22 mph    
Max Gust Speed 28 mph    
Visibility 8 miles    
Events Rain    
T = Trace of Precipitation, MM = Missing Value Source: NWS Daily Summary

Daily Weather History Graph

Daily Weather History Graph

Search for Another Location

Airport or City:

Trip Planner

Search our weather history database for the weather conditions in past years. The results will help you decide how hot, cold, wet, or windy it might be!

Date:

Astronomy

Dec. 16, 2012 Rise Set
Actual Time 7:56 AM EST 5:02 PM EST
Civil Twilight 7:24 AM EST 5:34 PM EST
Nautical Twilight 6:48 AM EST 6:09 PM EST
Astronomical Twilight 6:14 AM EST 6:43 PM EST
Moon 10:25 AM EST (12/16) 9:19 PM EST (12/16)
Length of Visible Light 10h 10m
Length of Day
9h 06m
Waxing Crescent, 16% of the Moon is Illuminated
Dec 16
Waxing Crescent
Dec 20
First Quarter
Dec 28
Full
Jan 4
Last Quarter
Jan 11
New

Hourly Weather History & Observations

Time (EST) Temp. Windchill Dew Point Humidity Pressure Visibility Wind Dir Wind Speed Gust Speed Precip Events Conditions
12:53 AM 45.0 °F 39.3 °F 41.0 °F 86% 29.70 in 5.0 mi SSE 11.5 mph - 0.01 in Rain Light Rain
1:53 AM 46.0 °F 41.9 °F 43.0 °F 89% 29.69 in 8.0 mi South 8.1 mph - 0.02 in Rain Light Rain
2:44 AM 46.4 °F 43.5 °F 44.6 °F 93% 29.67 in 10.0 mi SSE 5.8 mph - 0.00 in Rain Light Rain
2:53 AM 46.0 °F 42.5 °F 44.1 °F 93% 29.68 in 10.0 mi SSE 6.9 mph - 0.00 in Rain Light Rain
3:34 AM 46.4 °F 42.9 °F 44.6 °F 93% 29.67 in 7.0 mi South 6.9 mph - 0.00 in Rain Light Rain
3:53 AM 46.9 °F - 45.0 °F 93% 29.68 in 6.0 mi SSE 8.1 mph - 0.02 in Rain Light Rain
4:31 AM 46.4 °F 41.9 °F 46.4 °F 100% 29.66 in 6.0 mi SSE 9.2 mph - N/A Rain Light Rain
4:53 AM 46.9 °F - 46.0 °F 97% 29.67 in 7.0 mi SSE 9.2 mph - 0.02 in Rain Light Rain
5:53 AM 48.0 °F - 46.0 °F 93% 29.67 in 5.0 mi South 11.5 mph - 0.03 in Rain Light Rain
6:53 AM 48.9 °F - 46.9 °F 93% 29.66 in 5.0 mi SSE 10.4 mph - 0.03 in Rain Rain
7:16 AM 48.2 °F - 46.4 °F 93% 29.65 in 4.0 mi South 10.4 mph - 0.04 in Rain Rain
7:53 AM 48.9 °F - 46.9 °F 93% 29.66 in 3.0 mi South 5.8 mph - 0.18 in Rain Light Rain
7:55 AM 48.2 °F - 46.4 °F 93% 29.65 in 3.0 mi South 5.8 mph - N/A Rain Light Rain
8:53 AM 50.0 °F - 46.9 °F 89% 29.66 in 3.0 mi SSE 8.1 mph - 0.03 in Rain Light Rain
9:03 AM 50.0 °F - 46.4 °F 87% 29.65 in 3.0 mi SSE 8.1 mph - 0.00 in Rain Light Rain
9:53 AM 50.0 °F - 48.0 °F 93% 29.66 in 3.0 mi South 5.8 mph - 0.00 in Rain Light Rain
10:53 AM 50.0 °F - 48.0 °F 93% 29.66 in 7.0 mi South 8.1 mph - 0.01 in Rain Light Rain
11:53 AM 52.0 °F - 48.9 °F 89% 29.65 in 2.5 mi SSW 18.4 mph 24.2 mph 0.01 in Rain Light Rain
12:08 PM 51.8 °F - 46.4 °F 82% 29.64 in 6.0 mi SSW 19.6 mph 27.6 mph 0.02 in Rain Light Rain
12:27 PM 51.8 °F - 46.4 °F 82% 29.63 in 10.0 mi SSW 16.1 mph 24.2 mph 0.02 in Rain Light Rain
12:53 PM 52.0 °F - 46.0 °F 80% 29.63 in 10.0 mi SSW 15.0 mph - 0.02 in   Overcast
1:53 PM 52.0 °F - 46.0 °F 80% 29.63 in 10.0 mi SW 13.8 mph - N/A   Overcast
2:23 PM 51.8 °F - 46.4 °F 82% 29.61 in 10.0 mi SW 10.4 mph - N/A   Overcast
2:53 PM 52.0 °F - 46.0 °F 80% 29.62 in 10.0 mi SW 10.4 mph - N/A   Overcast
3:00 PM 51.8 °F - 46.4 °F 82% 29.61 in 10.0 mi SW 10.4 mph - N/A   Overcast
3:24 PM 51.8 °F - 46.4 °F 82% 29.61 in 10.0 mi SW 8.1 mph - N/A   Overcast
3:53 PM 52.0 °F - 45.0 °F 77% 29.61 in 9.0 mi WSW 6.9 mph - N/A   Overcast
4:53 PM 50.0 °F - 45.0 °F 83% 29.63 in 10.0 mi South 9.2 mph - N/A   Overcast
5:17 PM 50.0 °F - 44.6 °F 82% 29.63 in 10.0 mi SSW 11.5 mph - N/A   Overcast
5:53 PM 51.1 °F - 43.0 °F 74% 29.64 in 10.0 mi SW 15.0 mph - N/A   Overcast
6:53 PM 50.0 °F - 43.0 °F 77% 29.63 in 10.0 mi SW 6.9 mph - N/A   Overcast
7:19 PM 50.0 °F - 42.8 °F 76% 29.63 in 10.0 mi WSW 6.9 mph - N/A   Overcast
7:53 PM 48.9 °F - 43.0 °F 80% 29.65 in 10.0 mi West 5.8 mph - N/A   Overcast
8:53 PM 48.9 °F - 43.0 °F 80% 29.66 in 10.0 mi SW 9.2 mph - N/A   Overcast
9:11 PM 48.2 °F - 42.8 °F 82% 29.65 in 10.0 mi SW 9.2 mph - N/A   Overcast
9:53 PM 48.0 °F - 43.0 °F 83% 29.66 in 10.0 mi West 9.2 mph - N/A   Overcast
10:53 PM 46.0 °F 40.2 °F 41.0 °F 83% 29.68 in 10.0 mi WSW 12.7 mph - N/A   Overcast
11:28 PM 44.6 °F 38.1 °F 37.4 °F 76% 29.69 in 10.0 mi SW 13.8 mph - 0.00 in   Overcast
11:53 PM 45.0 °F 39.3 °F 37.0 °F 74% 29.69 in 10.0 mi WSW 11.5 mph - 0.00 in   Overcast